This is the latest recevied weather packets stored in our database for station/object CE3MXM-12. If no packets are shown the sender has not sent any weather packets the latest 10 day(s).
| Time | Temp. | Humidity | Pressure | Rain* | Wind** | Luminosity | Snow |
|---|---|---|---|---|---|---|---|
| 1777267640 | 8.33° C | 67% | 1018.1 hPa | - | - | - | - |
| 1777267340 | 7.78° C | 69% | 1018.1 hPa | - | - | - | - |
| 1777267040 | 8.33° C | 68% | 1018.1 hPa | - | - | - | - |
| 1777266740 | 8.33° C | 67% | 1018.1 hPa | - | - | - | - |
| 1777266440 | 8.33° C | 66% | 1018.4 hPa | - | - | - | - |
| 1777266140 | 8.89° C | 65% | 1018.2 hPa | - | - | - | - |
| 1777265840 | 8.33° C | 66% | 1018.2 hPa | - | - | - | - |
| 1777265542 | 8.89° C | 65% | 1018.2 hPa | - | - | - | - |
| 1777265239 | 8.89° C | 65% | 1018.3 hPa | - | - | - | - |
| 1777264942 | 8.89° C | 64% | 1018.4 hPa | - | - | - | - |
| 1777264639 | 8.89° C | 65% | 1018.3 hPa | - | - | - | - |
| 1777264339 | 8.89° C | 64% | 1018.3 hPa | - | - | - | - |
| 1777264039 | 8.89° C | 64% | 1018.1 hPa | - | - | - | - |
| 1777263740 | 9.44° C | 64% | 1018.1 hPa | - | - | - | - |
| 1777263439 | 9.44° C | 64% | 1018.2 hPa | - | - | - | - |
| 1777263139 | 9.44° C | 64% | 1018.3 hPa | - | - | - | - |
| 1777262839 | 9.44° C | 63% | 1018.4 hPa | - | - | - | - |
| 1777262539 | 9.44° C | 63% | 1018.4 hPa | - | - | - | - |
| 1777262238 | 9.44° C | 62% | 1018.5 hPa | - | - | - | - |
| 1777261938 | 9.44° C | 62% | 1018.2 hPa | - | - | - | - |
| 1777261638 | 9.44° C | 61% | 1018.5 hPa | - | - | - | - |
| 1777261338 | 9.44° C | 61% | 1018.5 hPa | - | - | - | - |
| 1777261038 | 9.44° C | 61% | 1018.7 hPa | - | - | - | - |
| 1777260738 | 9.44° C | 60% | 1018.7 hPa | - | - | - | - |
| 1777260438 | 9.44° C | 60% | 1018.6 hPa | - | - | - | - |
* Rain since midnight (hover to see other rain measurements)
** Current wind speed in m/s (hover to see current wind gust speed)